Regional Weather Roundup
Issued by NWS

Home | Current Version | Previous Version | Text Only | Print | Product List | Glossary Off
Versions: 1 2 3 4 5 6 7 8 9 10 11 12 13 14 15 16 17 18 19 20 21 22 23 24 25 26 27 28 29 30 31 32 33 34 35 36 37 38 39 40 41 42 43 44 45 46 47 48 49 50

775
ASUS43 KBIS 202002
RWRND

NORTH DAKOTA REGIONAL WEATHER ROUNDUP
NATIONAL WEATHER SERVICE BISMARCK ND
200 PM CST MON FEB 20 2017

NOTE: "FAIR" INDICATES FEW OR NO CLOUDS BELOW 12,000 FEET WITH NO
SIGNIFICANT WEATHER AND/OR OBSTRUCTIONS TO VISIBILITY.


NDZ001>003-009>011-017-202100-
NORTHWEST NORTH DAKOTA

CITY           SKY/WX    TMP DP  RH WIND       PRES   REMARKS
WILLISTON      FAIR      45  32  60 W12       29.69F
MINOT          FAIR      50  36  58 W12       29.66F
MINOT AFB      SUNNY     43  37  79 W6        29.65F
$$

NDZ018>021-031>035-040>046-202100-
SOUTHWEST NORTH DAKOTA

CITY           SKY/WX    TMP DP  RH WIND       PRES   REMARKS
BISMARCK       FAIR      48  37  65 NW10      29.72S
DICKINSON      FAIR      52  26  36 NW15      29.71F
GARRISON         N/A     44  35  70 W10       29.68F
HETTINGER ARPT SUNNY     54  30  40 NW17      29.76F
$$

NDZ004>008-012>016-024-026-027-054-202100-
NORTHEAST NORTH DAKOTA

CITY           SKY/WX    TMP DP  RH WIND       PRES   REMARKS
GRAND FORKS    LGT RAIN  37  33  85 NW12      29.60R
GRND FRKS AFB  CLOUDY    37  37  99 N13       29.60F
DEVILS LAKE    CLOUDY    34  32  92 W18       29.63F
$$

NDZ022-023-025-028>030-036>039-047>053-202100-
SOUTHEAST NORTH DAKOTA

CITY           SKY/WX    TMP DP  RH WIND       PRES   REMARKS
FARGO          CLOUDY    41  39  93 W9        29.61R
JAMESTOWN      CLOUDY    37  35  92 NW20      29.65S
$$





USA.gov is the U.S. government's official web portal to all federal, state and local government web resources and services.